#timestamp,LO_Frequency,Hit,StdDev 
1598835615.6,286047008.3,N
1598835635.5,286047008.6,N
1598835655.3,286047012.4,N
1598835675.1,286047012.6,N
1598835695.9,286047016.0,Y
1598835715.7,286047007.3,P
1598835735.5,286047005.9,P
1598835755.4,286047004.8,P
1598835775.2,286047004.1,N
1598835795.1,286047004.1,N
1598835796.0,286047004.1,N
1598835815.8,286046998.2,N
1598835835.6,286046999.8,N
1598835855.5,286046999.0,N
1598835875.3,286046996.8,N
1598835895.1,286046996.9,N
1598835915.9,286046997.9,N
1598835935.7,286046997.4,N
1598835955.6,286046995.6,N
1598835975.4,286046997.3,N
1598835995.2,286046999.1,N
1598836015.1,286046997.2,N
1598836016.0,286046997.2,N
1598836035.8,286046997.5,N
1598836055.7,286046996.8,N
1598836075.5,286046997.0,N
1598836095.3,286046996.2,N
1598836115.2,286046994.5,N
1598836135.9,286046995.1,N
1598836155.7,286046999.5,N
1598836175.6,286047000.9,N
1598836195.4,286046999.7,N
1598836215.3,286047001.6,N
1598836235.1,286046999.7,N
1598836236.0,286046999.7,N
1598836255.8,286046998.9,N
1598836275.7,286046997.2,N
1598836295.5,286046999.6,N
1598836315.3,286046997.0,N
1598836335.2,286046996.9,N
1598836355.0,286046996.8,N
1598836355.9,286046996.8,N
1598836375.8,286046999.6,N
1598836395.6,286047000.8,N
1598836415.4,286047001.3,N
1598836435.3,286047005.3,N
1598836455.1,286047005.2,N
1598836475.8,286047003.2,N
1598836495.7,286047003.8,N
1598836515.5,286047004.1,N
1598836535.4,286047003.1,N
1598836555.2,286047005.2,N
1598836575.0,286047005.4,N
1598836575.9,286047005.4,N
1598836595.8,286047004.1,N
1598836615.6,286047003.9,N
1598836635.4,286047000.9,N
1598836655.3,286047000.8,N
1598836675.1,286046997.5,N
1598836695.9,286046995.7,N
1598836715.7,286046994.2,N
1598836735.5,286046995.7,N
1598836755.4,286046996.4,N
1598836775.2,286046995.3,N
1598836795.0,286046995.9,N
1598836796.0,286046995.9,N
1598836815.8,286046995.1,N
1598836835.6,286046998.1,N
1598836855.5,286047004.1,N
1598836875.3,286047001.2,N
1598836895.1,286047002.3,N
1598836915.9,286047001.0,N
1598836935.7,286047001.8,N
1598836955.6,286047001.2,N
1598836975.4,286046999.3,N
1598836995.2,286046994.9,N
1598837015.1,286046996.4,N
1598837016.0,286046996.4,N
1598837035.8,286046995.1,N
1598837055.6,286046997.7,N
1598837075.5,286046998.8,N
1598837095.3,286046996.6,N
1598837115.2,286046995.1,N
1598837135.9,286046997.4,N
1598837155.7,286046996.7,N
1598837175.6,286046997.9,N
1598837195.4,286046993.4,N
1598837215.2,286046993.4,N
1598837235.1,286046996.2,N
1598837236.0,286046996.2,N
1598837255.8,286046995.4,N
1598837275.7,286046994.9,N
1598837295.5,286046996.1,N
1598837315.3,286046994.0,N
1598837335.2,286046991.7,Y
1598837355.0,286046994.1,P
1598837355.9,286046994.1,P
1598837375.8,286046997.9,N
1598837395.6,286046997.2,N
1598837415.4,286046999.6,N
1598837435.3,286046999.6,N
1598837455.1,286046999.0,N
1598837475.8,286046998.7,N
1598837495.7,286046999.4,N
1598837515.5,286046997.3,N
1598837535.4,286047001.2,N
1598837555.2,286046999.3,N
1598837575.0,286046997.4,N
1598837575.9,286046997.4,N
1598837595.8,286047000.8,N
1598837615.6,286047000.9,N
1598837635.4,286046998.4,N
1598837655.3,286046999.9,N
1598837675.1,286047002.6,N
1598837695.9,286047005.5,N
1598837715.7,286047008.0,Y
1598837735.5,286047011.5,P
1598837755.4,286047011.4,N
1598837775.2,286047013.5,N
1598837795.0,286047011.2,N
1598837796.0,286047011.2,N
1598837815.8,286047012.1,N
1598837835.6,286047010.1,N
1598837855.5,286047007.9,N
1598837875.3,286047009.1,N
1598837895.1,286047010.8,N
1598837915.9,286047009.5,N
1598837935.7,286047007.7,N
1598837955.6,286047010.3,N
1598837975.4,286047006.2,N
1598837995.2,286047006.7,N
1598838015.1,286047008.9,N
1598838016.0,286047008.9,N
1598838035.8,286047008.9,N
1598838055.6,286047008.1,N
1598838075.5,286047008.1,N
1598838095.3,286047010.2,Y
1598838115.2,286047002.4,P
1598838135.9,286047002.5,N
1598838155.7,286047000.6,N
1598838175.6,286046999.7,N
1598838195.4,286047004.4,N
1598838215.2,286047000.2,N
1598838235.1,286047002.5,N
1598838236.0,286047002.5,N
1598838255.8,286046998.5,N
1598838275.7,286046998.4,N
1598838295.5,286047000.3,N
1598838315.3,286047003.6,N
1598838335.2,286047003.1,N
1598838355.0,286047005.3,N
1598838355.9,286047005.3,N
1598838375.8,286047002.9,N
1598838395.6,286047002.9,N
1598838415.4,286047005.3,N
1598838435.3,286047005.6,N
1598838455.1,286047005.6,N
1598838475.8,286047003.9,N
1598838495.7,286047004.0,N
1598838515.5,286047005.6,N
1598838535.4,286047005.6,N
1598838555.2,286047004.1,N
1598838575.0,286047001.6,N
1598838575.9,286047001.6,N
1598838595.8,286047002.6,N
1598838615.6,286047001.5,N
1598838635.4,286047003.4,N
1598838655.3,286047001.5,N
1598838675.1,286047004.3,N
1598838695.9,286047000.4,N
1598838715.7,286047001.4,N
1598838735.5,286047004.3,N
1598838755.4,286047003.3,N
1598838775.2,286047001.5,N
1598838795.0,286047001.1,N
1598838795.9,286047001.1,N
1598838815.8,286046999.8,N
1598838835.6,286047003.9,N
1598838855.5,286047003.4,N
1598838875.3,286047003.6,N
1598838895.1,286047002.5,N
1598838915.9,286047000.6,N
1598838935.7,286047004.1,N
1598838955.6,286047004.9,N
1598838975.4,286047007.7,Y
1598838995.2,286047007.1,P
1598839015.1,286047006.3,P
1598839016.0,286047006.3,P
1598839035.8,286047006.2,Y
1598839055.6,286046999.7,P
1598839075.5,286047003.7,N
1598839095.3,286047003.4,N
1598839115.2,286047005.6,N
1598839135.9,286047005.0,N
1598839155.7,286047005.1,N
1598839175.6,286047007.1,Y
1598839195.4,286047004.1,P
